Theta_e
309 309 309 309 309 308 306 307 307 308 307 307 307 306 306 305 305 306 306 306 306 306 307 306 307 306 306 309 309 314 314 315 320 318 320 322 323 324 325 323 321 322 322 321 321 322 323
307 309 309 307 308 307 307 308 307 307 307 306 306 306 306 304 306 305 306 306 306 306 306 306 306 305 306 308 307 312 314 315 320 317 320 321 319 321 322 323 322 321 321 321 321 321 321
307 309 308 307 306 306 307 306 307 307 306 305 305 305 304 304 304 305 305 305 305 305 306 306 305 305 306 306 312 312 313 315 319 318 320 320 319 320 320 321 320 320 322 321 321 320 321
308 307 307 307 307 305 306 306 305 305 306 306 306 306 304 303 302 304 304 305 305 305 306 305 305 305 305 305 306 312 314 316 318 319 320 320 318 318 319 318 319 320 320 322 319 320 320
307 306 307 306 305 305 305 305 306 306 308 307 307 307 305 303 302 304 304 304 305 305 305 303 305 305 306 308 312 313 314 316 318 319 320 320 319 320 319 320 320 319 317 318 320 320 318
307 306 306 306 304 304 305 306 306 307 307 306 306 306 306 304 303 302 302 303 304 305 305 305 305 306 306 310 313 314 314 315 319 320 321 320 320 322 320 320 319 319 317 318 317 318 320
307 306 306 305 304 304 305 305 307 307 306 306 306 306 305 303 303 302 301 303 304 304 304 302 302 306 310 312 314 313 315 316 319 320 321 320 322 323 319 318 317 318 317 317 318 316 318
305 306 305 304 304 303 304 305 306 307 305 305 306 304 303 302 302 302 301 303 303 303 303 302 303 304 305 308 315 315 316 319 320 321 321 322 323 319 317 317 318 319 318 318 318 314 316
305 306 305 304 303 303 303 305 306 306 305 304 305 304 300 303 302 302 302 302 302 303 306 308 306 307 307 313 315 316 315 314 319 320 321 321 321 316 318 317 319 319 319 319 318 316 313
305 306 305 304 304 302 303 304 305 306 306 304 305 304 301 302 303 302 302 303 303 303 309 309 310 311 312 313 317 315 313 316 315 316 319 320 318 317 316 319 318 320 318 318 316 319 320
304 305 304 304 303 302 302 304 305 306 306 303 303 301 301 301 302 303 302 303 302 302 314 309 309 308 313 315 315 314 314 316 315 312 317 316 320 321 320 319 318 318 316 315 314 316 315
304 305 304 304 303 302 302 302 303 305 306 305 301 302 302 302 303 302 302 301 302 311 314 313 311 314 315 315 315 314 315 313 313 314 314 315 313 315 316 315 316 311 313 312 313 314 321
304 304 304 303 303 303 302 302 302 303 305 305 303 302 302 301 303 301 301 304 313 315 308 315 315 315 315 317 315 314 315 316 318 319 318 314 313 312 312 315 312 312 317 323 322 324 321
304 304 303 303 303 302 302 302 302 302 304 305 304 301 302 302 302 302 302 308 317 312 313 313 314 315 317 315 316 316 316 316 312 315 319 321 320 313 311 314 316 315 318 322 320 316 314
303 304 303 303 303 302 302 301 301 301 302 304 303 302 302 302 301 302 306 315 314 311 313 314 313 314 316 315 316 316 316 315 312 312 318 317 316 310 309 310 313 314 319 309 313 308 314
303 303 304 303 303 303 302 301 301 301 302 304 303 303 304 303 302 304 313 314 313 309 312 312 314 313 314 315 315 316 316 313 312 310 309 312 317 312 310 310 310 313 310 316 316 318 316
302 303 304 303 303 302 302 301 301 300 302 303 302 309 304 303 304 312 314 315 314 313 312 312 313 313 314 314 315 316 314 312 311 310 309 311 315 314 312 314 314 311 313 310 312 312 315
302 302 302 304 303 302 302 301 300 300 302 303 302 314 304 304 315 313 315 312 311 314 312 311 311 312 313 313 314 314 312 313 310 311 313 310 313 315 314 310 309 310 312 310 314 315 311
302 302 302 303 302 301 301 301 300 299 302 302 307 307 305 307 316 315 312 312 312 313 313 311 312 311 310 312 314 312 312 309 309 311 312 311 313 315 314 312 310 312 311 309 308 310 314
302 302 301 302 303 302 301 300 299 299 300 301 306 313 311 310 309 313 313 314 314 311 311 309 311 310 310 311 311 312 311 311 308 309 310 310 310 313 314 314 313 314 312 309 311 315 312
301 301 301 301 302 301 300 300 299 298 299 301 306 306 306 313 312 310 311 312 314 314 312 310 311 311 311 312 312 312 312 310 309 312 310 311 316 311 310 310 311 312 312 311 311 312 314
300 300 300 300 301 301 300 299 298 297 299 301 304 305 305 307 305 309 309 313 314 313 314 312 312 311 311 312 311 312 312 312 312 311 311 310 315 311 311 310 311 312 312 311 311 311 311
300 300 299 300 300 300 300 299 299 298 295 299 299 301 304 305 307 310 311 311 313 312 312 312 313 314 314 313 312 311 310 310 311 311 311 312 312 313 314 309 310 313 311 312 312 311 311
299 300 300 300 300 300 299 298 299 298 295 295 296 299 303 307 306 308 307 307 310 311 313 313 313 314 311 307 307 309 310 310 310 310 310 312 313 312 314 311 316 311 309 310 311 311 310
300 301 300 300 299 300 299 298 299 299 296 294 294 297 301 303 303 304 306 306 308 308 311 313 313 311 311 311 313 313 313 313 312 312 311 310 312 313 315 313 312 311 310 311 312 316 310
300 300 299 300 299 299 299 298 298 298 298 296 294 293 296 299 300 301 304 305 307 310 311 312 311 310 310 313 314 315 314 313 315 314 311 311 311 312 312 313 314 312 315 312 311 320 312
299 300 300 299 299 298 298 298 299 299 298 297 295 294 295 296 296 299 301 303 306 308 309 307 311 313 310 315 316 315 314 311 315 314 315 314 314 314 313 313 312 310 313 313 319 319 312
299 300 299 299 299 299 298 298 298 298 298 297 297 295 295 296 295 294 298 299 299 302 309 307 311 310 312 316 315 314 314 314 313 312 312 313 314 315 314 313 313 309 310 314 314 311 311
301 300 299 299 299 299 298 298 298 298 298 297 297 296 294 295 296 293 294 294 295 296 299 300 306 308 311 314 313 313 314 313 314 315 311 313 313 312 312 312 309 310 312 312 311 311 310
Wind_Speed
22 23 24 26 27 27 30 29 29 27 25 25 24 22 20 13 13 10 8 8 7 7 7 7 5 4 3 8 13 6 3 3 26 25 25 18 22 17 16 13 12 13 6 7 4 7 5
23 24 25 26 26 30 32 32 28 26 25 26 23 20 19 16 12 11 8 6 7 7 6 6 5 5 5 15 14 15 18 8 25 28 27 22 17 14 14 12 13 13 5 13 8 8 4
23 24 25 26 29 31 32 32 30 26 27 28 25 21 17 10 15 14 10 8 8 8 7 7 6 6 9 14 4 4 11 13 25 29 22 21 16 14 10 8 9 8 13 8 9 7 8
23 25 26 27 28 31 31 33 31 30 29 29 25 20 13 18 11 12 11 9 9 9 8 6 6 6 7 14 23 10 5 2 22 26 22 14 19 8 8 6 10 13 7 9 11 16 6
23 25 27 28 31 32 31 29 32 32 33 31 27 21 14 13 11 9 9 9 10 9 7 4 4 6 5 7 11 11 8 4 23 21 19 15 12 9 7 14 9 14 10 17 5 7 8
23 25 27 28 29 30 30 32 33 34 33 31 27 20 12 6 9 7 5 7 1 3 5 4 1 5 6 11 6 7 7 6 15 17 13 14 8 10 12 14 14 16 15 11 14 6 9
22 23 25 27 28 29 29 30 33 34 34 32 27 19 2 4 3 3 3 3 3 3 5 3 4 2 6 6 6 9 8 6 18 20 10 20 10 19 20 17 0 10 15 10 8 2 4
21 23 25 26 27 28 28 29 31 32 33 31 27 17 8 7 3 3 4 2 5 3 2 7 6 7 13 9 5 6 9 8 11 19 12 8 14 17 14 10 7 13 13 9 5 3 4
20 22 24 25 27 27 27 27 30 32 32 31 27 14 9 9 5 3 5 6 5 2 1 4 3 6 5 3 4 6 6 3 18 12 18 7 13 18 15 13 12 8 10 6 2 4 1
19 21 23 24 26 28 27 27 29 29 29 30 27 16 9 7 4 4 5 7 4 1 1 4 3 2 5 4 5 10 7 2 5 7 7 2 1 20 19 16 14 9 5 7 6 3 4
17 21 22 24 25 28 28 27 28 28 25 24 21 14 10 14 2 3 4 5 5 2 3 7 4 4 4 1 6 7 7 5 9 10 4 2 3 19 18 17 14 3 7 7 4 3 2
17 19 21 24 24 27 28 28 26 26 24 18 17 13 7 6 6 4 6 7 3 3 6 4 6 5 4 8 6 5 2 5 6 9 11 5 3 4 3 9 5 14 10 7 3 1 3
15 18 21 23 25 26 28 29 27 26 24 20 9 8 11 5 1 5 10 3 2 6 1 6 4 5 11 8 7 5 3 2 4 5 3 3 4 3 3 9 4 1 7 3 4 4 1
15 17 20 23 25 26 27 28 29 29 28 26 9 7 3 2 1 7 4 2 9 4 2 3 5 12 7 4 4 5 7 5 4 3 3 3 5 1 1 1 6 8 3 2 3 4 3
14 17 20 22 24 27 28 29 30 30 32 26 7 5 3 3 4 6 2 5 3 1 2 6 7 6 4 7 4 2 4 3 3 2 2 4 4 3 1 2 4 4 4 2 4 1 2
13 16 19 22 24 27 29 30 31 32 33 20 5 3 2 3 4 2 1 5 1 3 3 1 3 2 3 4 3 3 1 2 3 2 2 3 6 3 3 1 9 1 8 3 1 4 4
13 15 18 21 23 27 29 30 31 33 33 13 3 2 0 7 3 2 3 4 2 1 3 2 3 4 5 4 4 4 3 2 2 3 2 4 3 4 3 3 6 4 3 1 1 2 2
12 15 17 21 23 26 29 31 32 33 32 10 3 0 4 2 2 2 2 2 2 2 1 2 2 3 4 3 4 2 3 1 3 3 3 2 4 5 2 2 2 2 3 5 3 4 0
11 14 17 20 21 24 27 30 32 32 26 8 3 2 5 2 3 3 2 2 1 5 4 2 2 1 1 3 2 2 3 2 4 3 4 5 3 5 2 2 2 5 6 3 4 1 5
10 13 17 19 20 24 27 28 31 32 24 6 2 0 3 3 3 2 1 1 1 1 1 1 2 2 3 3 3 4 3 2 1 1 3 3 2 1 3 3 4 5 10 10 5 4 4
9 13 17 21 20 22 25 26 30 33 20 2 3 2 1 1 3 2 1 2 2 2 1 1 1 1 3 3 3 4 3 3 3 5 2 1 2 1 1 2 3 3 7 13 10 7 6
9 13 16 18 19 19 22 24 28 33 18 5 2 2 2 1 2 1 1 1 2 1 2 1 2 4 2 2 1 6 7 5 3 4 3 1 3 1 1 2 6 7 11 12 15 16 14
9 12 15 17 18 18 20 21 23 27 20 6 5 3 2 2 0 2 1 1 2 3 2 2 0 3 3 2 2 1 2 4 5 7 5 5 5 2 1 1 5 7 16 18 11 9 14
8 10 13 17 18 16 18 18 19 20 23 6 5 4 2 1 2 1 2 3 3 5 3 2 1 2 4 6 8 8 9 7 5 3 4 6 4 1 0 2 4 3 3 4 17 12 16
8 10 13 16 16 14 17 17 16 15 16 12 9 3 3 2 2 1 3 3 8 4 2 2 1 2 2 1 2 4 3 3 2 2 3 2 4 2 2 3 7 3 3 6 8 2 16
8 11 12 14 15 14 15 16 13 12 14 12 10 9 2 3 2 2 2 3 2 3 2 0 2 1 1 0 1 3 4 4 4 4 2 3 3 4 3 3 3 3 3 4 3 3 4
8 12 12 13 13 14 16 14 16 13 10 11 4 7 2 2 2 2 2 1 2 1 3 3 2 2 1 3 4 4 3 1 5 7 5 5 3 9 7 5 6 5 3 4 4 4 6
8 12 10 12 12 13 16 14 14 7 8 8 8 4 2 2 6 4 2 4 3 3 3 3 2 2 1 5 3 3 4 5 4 4 6 9 7 5 6 4 8 6 5 4 4 1 1
11 9 11 12 11 12 13 17 12 13 10 6 4 4 5 4 5 7 14 16 15 8 1 2 3 3 2 4 2 2 3 4 5 4 5 7 6 4 8 5 1 6 1 2 2 4 3
Wind_Direction
345 343 343 343 337 338 335 331 333 330 327 321 317 315 314 312 296 307 311 306 301 297 287 280 270 286 314 214 228 214 132 279 204 195 198 190 187 192 195 189 179 212 195 206 189 159 169
347 344 345 345 341 337 336 334 332 333 329 325 323 321 317 310 298 300 302 295 294 287 282 270 248 249 221 242 225 245 241 316 187 190 199 191 195 190 202 188 189 192 174 205 210 206 178
345 345 345 344 343 342 343 340 338 332 329 326 322 319 318 309 310 298 289 288 284 279 276 260 227 217 240 244 178 234 215 219 187 188 190 188 193 177 167 166 193 163 202 217 216 216 224
348 348 345 345 344 346 344 342 342 335 329 324 319 315 310 315 300 290 287 287 281 270 265 253 218 197 252 253 237 242 218 266 183 188 191 182 168 178 189 147 168 182 186 193 223 221 202
350 349 348 348 351 349 348 346 339 333 332 333 323 304 284 310 305 301 287 290 282 270 253 204 188 210 245 180 209 189 202 141 170 178 193 173 166 165 156 158 156 190 197 211 184 214 208
350 350 350 350 351 350 349 346 343 342 348 346 341 333 279 320 316 307 311 308 300 170 170 152 183 212 245 192 173 162 185 165 154 162 170 183 186 181 182 182 195 188 194 207 215 178 216
350 351 350 354 353 352 353 350 345 352 354 355 351 343 316 14 5 11 1 124 186 124 198 213 214 313 87 156 143 169 154 178 169 169 173 187 183 195 186 196 184 172 189 185 206 155 225
350 353 351 353 352 353 355 354 352 356 1 1 8 25 92 56 75 116 31 70 53 8 264 229 262 296 284 278 146 164 178 194 166 174 146 169 204 188 173 155 171 184 179 188 133 137 244
351 352 351 351 353 354 354 358 354 2 6 9 11 26 91 52 76 49 50 43 329 253 255 81 94 264 293 240 128 127 119 332 155 169 159 140 178 171 167 169 166 173 181 166 142 162 192
349 352 351 353 352 354 353 356 358 3 7 16 27 56 69 28 41 5 54 9 55 58 237 26 97 206 254 261 74 47 70 269 84 138 117 66 290 171 178 178 196 188 171 141 140 202 236
351 352 353 352 353 353 353 356 360 360 6 15 39 56 60 42 12 42 6 11 344 310 69 5 328 288 224 67 122 50 56 338 122 139 167 76 200 174 180 184 196 109 137 126 124 143 271
351 351 353 353 355 353 352 355 358 357 355 10 24 38 33 59 44 357 350 334 238 249 42 6 327 109 143 88 69 126 162 58 64 62 64 77 10 43 53 84 165 135 117 85 90 206 226
350 355 353 354 355 354 352 353 355 353 348 346 343 27 46 64 129 4 339 314 267 43 309 16 70 117 99 76 65 72 42 40 117 118 105 104 44 52 15 79 67 154 160 153 195 203 240
354 353 355 354 354 354 353 354 352 349 345 339 302 273 351 72 20 346 327 264 51 318 358 209 132 85 82 100 83 154 144 87 51 102 103 103 108 117 9 207 168 186 212 240 205 192 143
356 353 356 355 353 354 353 354 352 350 346 345 335 251 247 269 292 334 265 50 56 307 276 127 93 62 79 70 95 73 56 90 100 187 112 131 83 107 22 141 175 164 212 34 95 67 251
0 357 356 357 355 351 353 354 353 350 347 340 324 279 208 330 270 232 35 93 95 208 279 353 82 336 122 108 130 158 67 75 105 42 303 127 112 96 164 174 55 246 133 154 227 197 223
358 359 354 355 356 353 351 354 355 351 347 344 315 252 267 353 150 21 47 65 32 336 307 345 117 122 121 139 164 129 131 136 167 116 115 136 93 137 181 211 170 140 178 69 27 294 271
359 359 356 353 354 354 351 352 355 356 351 353 327 69 344 50 73 65 42 317 305 335 354 85 86 99 139 143 141 135 127 116 164 146 101 59 103 137 145 66 323 251 219 212 243 183 248
0 1 358 356 351 353 353 351 354 357 360 333 345 310 330 332 82 50 9 26 353 12 22 29 96 360 155 129 126 119 134 21 165 156 154 168 120 117 148 196 177 220 192 185 103 83 203
359 4 1 356 351 351 354 354 354 355 354 354 309 244 356 52 31 49 10 14 324 112 329 5 109 134 140 119 55 136 124 47 190 10 90 102 117 291 188 90 124 193 197 192 193 201 167
356 3 4 360 354 350 355 357 356 356 358 13 9 62 355 91 86 54 247 332 319 343 352 328 140 246 166 142 129 139 142 116 134 159 101 140 112 124 169 132 175 215 201 198 206 204 211
354 357 356 355 352 352 357 0 1 2 7 57 19 357 333 90 309 238 103 120 332 340 290 177 197 150 190 177 220 177 164 182 173 171 166 98 121 129 213 195 230 249 233 216 221 232 246
351 353 355 353 354 352 357 2 5 7 21 36 357 320 306 1 330 230 103 355 18 331 163 284 195 148 159 171 172 346 135 162 166 164 158 157 148 160 200 154 287 261 231 214 209 210 216
347 343 347 354 350 353 353 358 1 8 18 34 358 309 309 269 299 46 350 335 315 343 300 314 302 285 93 101 117 103 91 96 123 104 171 155 125 100 260 252 232 62 133 214 215 217 217
324 329 335 351 1 356 353 0 5 4 12 24 14 343 339 279 329 283 346 328 305 289 250 282 34 16 170 198 122 131 140 161 96 78 180 204 147 122 271 244 304 236 196 173 184 195 217
338 341 342 349 353 355 355 347 350 359 350 3 14 10 335 312 169 323 294 307 321 331 278 37 47 46 126 171 188 215 198 186 174 156 84 152 243 215 181 267 257 51 144 198 223 129 159
337 341 336 348 353 357 352 340 337 331 342 341 317 5 342 299 274 258 222 283 288 251 282 298 347 192 269 187 211 220 226 241 185 190 173 173 176 212 217 257 277 248 145 164 202 108 152
320 336 334 343 345 348 354 346 338 353 356 333 312 312 354 294 275 244 256 234 266 243 228 29 239 187 185 214 213 183 230 205 192 198 181 181 185 192 204 217 251 149 135 217 77 111 235
297 326 337 339 336 343 347 1 318 321 325 320 286 293 276 243 280 256 253 260 254 253 345 295 316 265 264 228 237 163 193 186 188 213 193 205 206 187 205 216 306 194 97 139 264 273 268